sat.trackr.live / text

‹ back to catalog

STARLINK-37866

NORAD 69430 · 2026-126L

PAYLOAD ACTIVE UNKNOWN

§ Identity

Operator
Country
US
Launch date
2026-06-07
Launch site
AFWTR
Launch vehicle
Mass (kg)
RCS (m²)

Purposes: comms

External: N2YO · Heavens-Above · Gunter

§ Orbital elements

Epoch: 2026-09-20T02:02:38.874624Z

Period
93.91 min
Inclination
97.2849°
Eccentricity
0.0001712
Mean motion
15.33462483 rev/d
Perigee alt
464.3 km
Apogee alt
466.7 km
Semi-major
6,843.6 km
B*
4.2406e-4
RAAN
124.3713°
Arg perigee
92.6485°
Mean anomaly
267.4953°
Rev number
1,751

§ Raw data

STARLINK-378661 69430U 26126L   26263.08517216  .00013648  00000+0  42406-3 0  99982 69430  97.2849 124.3713 0001712  92.6485 267.4953 15.33462483 17518

JSON: /api/v1/satellites/69430 · /tle

For live sub-satellite position, see the globe view (requires WebGL).

§ Visibility from observer

Set your observer location to see the next 7 days of passes ≥ 10°. The values pass through the URL so the page stays shareable.

No JS? Fill the form by hand. The geolocation button needs JavaScript.